CZ-3C DEB, 39353

Orbit data source: Space-Track

CZ-3C DEB, 39353 is space debris in HEO originally from a launch on Sun, 31 Oct 2010 UTC launched from the Xichang Space Center, China (XSC). Debris objects in space refer to the collection of defunct objects orbiting the Earth. Examples of debris include non-operational satellites, rocket bodies, and fragments generated from explosions, collisions, or faulty payload assembly.

Loading next visibility...
Identifier
39353, 2010-057T
Orbit
HEO
Country
Flag of CNCN / PRC
Related business
Manufacturer
CALT
Mission
Spacecraft
Bus & Motor
Unknown
Mass
Unknown
Launch date (UTC)
2010-10-31 (15 years ago)
Launch vehicle
Unknown
Launch site
Xichang Space Center, China (XSC)
Object type
Payload
Rocket body
Debris
Shape & HBR
Unknown shape, 0.3 m
Radar Cross Section
Medium (>0.1 m² and <1 m²)

Expand to show TLE details & history
Last TLE update: 18 hours ago

TLE from 18 hours ago
0 CZ-3C DEB
1 39353U 10057T   25346.71619126  .00000150  00000-0  28800-2 0  9995
2 39353  19.5721 144.5085 7169045  85.7145   3.1724  2.24427955 99600
Epoch: 2025-12-12T17:11Z
TLE epoch observation values (Epoch: 2025-12-12T17:11:18.924Z)
Latitude
18.19954°
Longitude
-82.00551°
Altitude
892.142 km
Speed
9.669 km/s
True Right ascension
17h 09m 54s
True Declination
18° 05' 59"
Sunlit
Object was in daylight at epoch
Visualization orbit readout
Latitude
Unknown
Longitude
Unknown
Altitude
Unknown
Speed
Unknown
Apparent Right ascension
Unknown
Apparent Declination
Unknown
Sunlit
N/A
Visualization observer readout
Local Sidereal Time
09:16:58
Azimuth
Unknown
Elevation
Unknown
Doppler factor
Unknown
Orbital elements
Apogee altitude
35,938.153 km
Perigee altitude
599.276 km
Semi-major axis
24,646.852 km
Eccentricity
0.7169
Inclination
19.5721°
RAAN
144.5085°
Arg. of periapsis
85.7145°
True anomaly
26.75948°
Mean anomaly
3.1724°
Eccentric anomaly
11.03373°
Mean motion
0.56092 °/min
Orbital period
641.8 mins
BSTAR
0.00288
Loading maneuver chart data...
Computing Atmospheric mass density...
Loading historical data...
Loading historical data...
Loading historical data...
Loading historical data...
Loading historical data...
Loading historical data...
Loading historical data...

Documentation

Showing up to 5 results
|